Preview of NWS' New Version of Forecast
This preview is not operational and should not be used for support decisions.

Regional Weather Roundup (RWR)

Issued by National Weather Service (NWS)

                            
000
ASCA42 TJSJ 211910
RWRPR 
PUERTO RICO/U.S. VIRGIN ISLANDS HOURLY WEATHER ROUNDUP
NATIONAL WEATHER SERVICE SAN JUAN PR
300 PM AST WED AUG 21 2019

PRZ001>002-007>008-010-212000-
PUERTO RICO
  
CITY           SKY/WX    TMP DP  RH WIND       PRES   REMARKS
SAN JUAN LMM   MOSUNNY   88  73  62 E18       29.98F HX  96           
AGUADILLA      PTSUNNY   88  75  66 E16G25    29.99F HX  97           
CEIBA          PTSUNNY   88  72  58 E13G18    30.00F HX  94           
$$

VIZ001>002-212000-
U.S. VIRGIN ISLANDS
  
CITY           SKY/WX    TMP DP  RH WIND       PRES   REMARKS
CHARLOTTE AMA  MOSUNNY   90  72  55 E12G23    29.97F HX  96           
CHRISTIANSTED  MOSUNNY   88  72  58 E16       29.99  HX  94           
$$

HOURLY WEATHER ROUNDUP FOR THE NEWS MEDIA
  
CITY           SKY/WX    TMP DP  RH WIND       PRES   REMARKS
ORLANDO        PTSUNNY   90  71  53 E7        30.07F HX  96           
NEW YORK       FAIR      85  77  77 S15       29.89F HX  95           
NEWARK         PTSUNNY   88  71  57 S14       29.86F HX  94           
CHICAGO        CLOUDY    83  68  60 SW13G18   29.95F                  
HARTFORD       PTSUNNY   80  71  74 SW18G26   29.91F                  
BOSTON         LGT RAIN  83  69  62 S15       29.87F                  
DALLAS         MOSUNNY   98  68  37 SE10      29.98F HX 103           
PHILADELPHIA   PTSUNNY   92  67  43 SW17G28   29.88F HX  95           
LOS ANGELES    SUNNY     78  61  55 SW13      29.87S                  
WASHINGTON DC  PTSUNNY   89  69  51 W6        29.90F HX  93